Hourly Data Report for December 12, 2018

TORONTO CITY
ONTARIO
Current Station Operator: ECCC - MSC

43°40'00.000" N
79°24'00.000" W
112.50 m
6158355
71508
XTO

Download Data

Hourly Data (December 2018)
Hourly Data Report for December 12, 2018
TIME
LST
Temp Definition
°C
Dew Point Definition
°C
Rel Hum Definition
%
Precip. Amount Definition
mm

Wind Dir Definition
10's deg

Wind Spd Definition
km/h
Visibility Definition
km
Stn Press Definition
kPa
Hmdx Definition


Wind Chill Definition


Weather Definition


00:00 1.0 -2.4 78 0.0 LegendMM LegendMM   100.24     LegendNANA
01:00 1.2 -2.5 77 0.0 LegendMM LegendMM   100.28     LegendNANA
02:00 1.2 -2.6 76 0.0 LegendMM LegendMM   100.35     LegendNANA
03:00 1.2 -2.4 77 0.0 LegendMM LegendMM   100.42     LegendNANA
04:00 1.0 -2.4 78 0.0 LegendMM LegendMM   100.41     LegendNANA
05:00 0.9 -2.5 78 0.0 LegendMM LegendMM   100.49     LegendNANA
06:00 0.7 -2.6 78 0.0 LegendMM LegendMM   100.51     LegendNANA
07:00 0.2 -2.8 80 0.0 LegendMM LegendMM   100.57     LegendNANA
08:00 -0.1 -3.7 76 0.0 LegendMM LegendMM   100.58     LegendNANA
09:00 -0.3 -4.0 76 0.0 LegendMM LegendMM   100.60     LegendNANA
10:00 -0.1 -3.3 79 0.0 LegendMM LegendMM   100.62     LegendNANA
11:00 -0.1 -3.2 80 0.0 LegendMM LegendMM   100.60     LegendNANA
12:00 0.1 -2.7 81 0.0 LegendMM LegendMM   100.55     LegendNANA
13:00 1.0 -2.1 80 0.0 LegendMM LegendMM   100.51     LegendNANA
14:00 1.4 -2.8 73 0.0 LegendMM LegendMM   100.43     LegendNANA
15:00 1.6 -3.2 70 0.0 LegendMM LegendMM   100.44     LegendNANA
16:00 1.7 -3.7 68 0.0 LegendMM LegendMM   100.46     LegendNANA
17:00 1.8 -3.2 70 0.0 LegendMM LegendMM   100.46     LegendNANA
18:00 1.7 -2.8 72 0.0 LegendMM LegendMM   100.42     LegendNANA
19:00 1.8 -2.6 73 0.0 LegendMM LegendMM   100.44     LegendNANA
20:00 1.7 -2.5 74 0.0 LegendMM LegendMM   100.42     LegendNANA
21:00 1.8 -2.0 76 0.0 LegendMM LegendMM   100.48     LegendNANA
22:00 1.7 -1.8 77 0.0 LegendMM LegendMM   100.44     LegendNANA
23:00 1.9 -2.0 75 0.0 LegendMM LegendMM   100.43     LegendNANA

Notes on Data Quality.

Legend

  • E = Estimated
  • M = Missing
  • NA = Not Available*
  • [empty] = Indicates an unobserved value
Date modified: